sat.trackr.live / text

‹ back to catalog

JINJUSAT-1B

NORAD 63210 · 2025-052A

PAYLOAD ACTIVE UNKNOWN

§ Identity

Operator
Country
SKOR
Launch date
2025-03-15
Launch site
AFWTR
Launch vehicle
Mass (kg)
RCS (m²)

External: N2YO · Heavens-Above · Gunter

§ Orbital elements

Epoch: 2026-09-22T22:24:25.218144Z

Period
93.73 min
Inclination
97.3862°
Eccentricity
0.0005288
Mean motion
15.36288911 rev/d
Perigee alt
453.5 km
Apogee alt
460.7 km
Semi-major
6,835.2 km
B*
3.7423e-4
RAAN
162.9447°
Arg perigee
91.9764°
Mean anomaly
268.2085°
Rev number
8,509

§ Raw data

JINJUSAT-1B1 63210U 25052A   26265.93362521  .00013171  00000+0  37423-3 0  99922 63210  97.3862 162.9447 0005288  91.9764 268.2085 15.36288911 85098

JSON: /api/v1/satellites/63210 · /tle

For live sub-satellite position, see the globe view (requires WebGL).

§ Visibility from observer

Set your observer location to see the next 7 days of passes ≥ 10°. The values pass through the URL so the page stays shareable.

No JS? Fill the form by hand. The geolocation button needs JavaScript.

§ Radio — SatNOGS DB

ModeDescriptionDownlinkUplink
BPSK Mode U - BPSK9k6 - AX.25 G3RUH - Telemetry 435.185 MHz

1 transmitter · refreshed weekly from db.satnogs.org